MSC Fabiola — A8VL5 — position and weather

sailwx.info

Track history (hours):
 
Tides and Currents Weather Stations Pressure Air Temp Water Temp Dewpoint Dewpoint Depression Visibility Wind Speed Wind Dir Waves Ship Positions

MSC Fabiola

Last reported at 2014-Oct-23 09:33 UTC. Time now 2014-Oct-23 10:19 UTC.
Position N 36°38' W 008°46'.

Length 366 m; draft 14.6 m.

Type: Ship. MMSI: 636092019.

Date/timePositionNaut miles runAvg speedWind from/ knotsBaromVisibWave heightAir tempDewpointWater temp
2014-Oct-23 09:33N 36°38' W 008°46'1717.1
2014-Oct-23 08:33N 36°33' W 008°26'1717.2
2014-Oct-23 07:33N 36°27' W 008°05'1717.4
2014-Oct-23 06:33N 36°22' W 007°45'10717.4
2014-Oct-23 00:24N 35°57' W 005°35'1417.1
2014-Oct-22 23:34N 36°02' W 005°18'51117.5
2014-Oct-21 18:23N 37°35' E 005°09'1517.6
2014-Oct-21 17:33N 37°35' E 005°28'12918.1
2014-Oct-21 10:25N 37°42' E 008°11'2019.9
2014-Oct-21 09:26N 37°42' E 008°36'2019.5
2014-Oct-21 08:24N 37°43' E 009°01'1619.0
2014-Oct-21 07:33N 37°43' E 009°21'3 3.4
2014-Oct-21 06:32N 37°43' E 009°26'9 8.8
2014-Oct-21 05:33N 37°41' E 009°36'2418.7
2014-Oct-21 04:17N 37°40' E 010°07'1318.0
2014-Oct-21 03:33N 37°39' E 010°23'20119.2
2014-Oct-20 17:08N 36°29' E 014°19'  
Track history (hours):
 
Tides and Currents Weather Stations Pressure Air Temp Water Temp Dewpoint Dewpoint Depression Visibility Wind Speed Wind Dir Waves Ship Positions

MSC Fabiola

Last reported at 2014-Oct-23 09:33 UTC. Time now 2014-Oct-23 10:19 UTC.
Position N 36°38' W 008°46'.

Length 366 m; draft 14.6 m.

Type: Ship. MMSI: 636092019.

Date/timePositionNaut miles runAvg speedWind from/ knotsBaromVisibWave heightAir tempDewpointWater temp
2014-Oct-23 09:33N 36°38' W 008°46'1717.1
2014-Oct-23 08:33N 36°33' W 008°26'1717.2
2014-Oct-23 07:33N 36°27' W 008°05'1717.4
2014-Oct-23 06:33N 36°22' W 007°45'10717.4
2014-Oct-23 00:24N 35°57' W 005°35'1417.1
2014-Oct-22 23:34N 36°02' W 005°18'51117.5
2014-Oct-21 18:23N 37°35' E 005°09'1517.6
2014-Oct-21 17:33N 37°35' E 005°28'12918.1
2014-Oct-21 10:25N 37°42' E 008°11'2019.9
2014-Oct-21 09:26N 37°42' E 008°36'2019.5
2014-Oct-21 08:24N 37°43' E 009°01'1619.0
2014-Oct-21 07:33N 37°43' E 009°21'3 3.4
2014-Oct-21 06:32N 37°43' E 009°26'9 8.8
2014-Oct-21 05:33N 37°41' E 009°36'2418.7
2014-Oct-21 04:17N 37°40' E 010°07'1318.0
2014-Oct-21 03:33N 37°39' E 010°23'20119.2
2014-Oct-20 17:08N 36°29' E 014°19'  

Dump ship's entire track history